Temperature
22 23 23 22 22 22 22 22 21 22 22 22 22 22 22 21 20 20 19 18 17 17 17 16 16 16 16 16 16 16 16 15 15 15 15 15 15 15 15 15 15 15 15 15
21 22 22 22 22 22 22 22 22 22 22 22 22 22 22 21 20 19 19 18 17 17 16 16 16 16 16 16 16 15 15 15 15 15 15 15 15 15 15 15 15 15 14 14
20 21 22 21 22 22 22 22 22 21 21 22 22 21 21 20 20 19 18 18 17 16 16 16 16 15 15 15 15 15 15 15 15 15 15 15 15 15 15 14 14 14 14 14
20 20 19 21 23 23 22 22 22 22 21 21 22 21 20 20 19 19 18 17 17 16 16 16 16 15 15 15 15 15 15 15 15 15 15 14 14 14 14 14 14 14 14 14
19 19 20 21 22 22 21 21 21 21 21 21 21 20 19 19 19 18 17 17 16 16 16 16 15 15 15 15 15 15 15 15 14 14 14 14 14 14 14 14 14 14 14 14
19 18 18 20 21 21 21 19 21 21 20 20 20 18 18 18 18 17 17 16 16 16 15 15 15 15 15 15 14 14 14 14 14 14 14 14 14 14 14 14 13 13 13 13
18 18 19 20 20 21 19 19 20 19 19 19 19 18 18 17 17 16 16 16 16 15 15 15 15 15 15 14 14 14 14 14 14 14 14 14 13 13 13 13 13 13 13 13
18 17 18 19 19 19 19 19 19 18 18 18 18 17 17 17 16 16 16 15 15 15 15 15 14 14 14 14 14 14 14 14 14 13 13 13 13 13 13 13 13 13 13 13
18 18 19 19 19 18 18 18 18 17 17 17 17 17 17 16 16 15 15 15 15 15 14 14 14 14 14 14 14 14 14 13 13 13 13 13 13 13 13 13 13 13 12 12
18 19 19 18 18 18 17 17 17 17 17 17 16 16 16 16 15 15 15 15 14 14 14 14 14 14 14 14 14 13 13 13 13 13 13 13 13 13 13 13 12 12 12 12
18 18 18 18 17 17 17 17 16 16 16 16 16 16 15 15 15 15 14 14 14 14 14 14 14 14 13 13 13 13 13 13 13 13 13 13 13 13 12 12 12 12 12 12
17 18 17 17 17 16 16 16 16 15 15 15 15 15 15 15 14 14 14 14 14 14 13 13 13 13 13 13 13 13 13 12 12 12 12 12 12 12 12 12 12 12 12 12
17 17 17 16 16 16 16 15 15 15 15 15 15 15 14 14 14 14 14 13 13 13 13 13 13 13 13 13 13 13 12 12 12 12 12 12 12 12 12 12 11 11 12 12
15 15 15 15 15 15 15 15 15 14 14 14 14 14 14 14 14 13 13 13 13 13 13 13 13 13 13 13 12 12 12 12 12 12 12 12 12 12 12 12 11 11 11 11
14 14 14 14 14 14 14 14 14 14 14 14 14 14 14 13 13 13 13 13 13 13 13 12 12 12 12 12 12 12 12 12 12 12 12 12 11 11 11 11 11 11 11 11
14 14 14 14 14 14 14 13 13 13 13 13 13 13 13 13 13 13 13 13 13 12 12 12 12 12 12 12 12 12 12 12 12 11 11 11 11 11 11 11 11 11 11 11
13 13 13 13 13 13 13 13 13 13 13 13 13 12 12 12 12 12 12 12 12 12 12 12 12 12 12 12 11 11 11 11 11 11 11 11 11 11 10 10 10 11 11 11
12 12 12 12 12 12 12 12 12 12 12 12 12 12 12 12 12 12 12 12 12 12 12 12 12 11 11 11 11 11 11 11 11 11 10 10 10 10 10 10 10 10 10 10
12 12 12 12 12 12 12 11 11 11 11 11 11 11 11 11 11 11 11 11 11 11 11 11 11 11 11 11 11 11 10 10 10 10 10 10 10 10 10 10 10 10 10 10
11 11 11 11 11 11 11 11 11 11 11 11 11 11 11 11 11 11 11 11 11 11 11 11 11 11 10 10 10 10 10 10 10 10 9 9 9 9 9 9 9 9 9 9
10 10 10 10 10 10 10 10 10 10 10 10 10 10 10 10 10 10 10 10 10 10 10 10 10 10 10 10 10 10 9 9 9 9 9 9 9 9 9 9 9 9 9 9
10 10 10 10 10 10 9 9 9 9 9 9 9 9 9 9 9 9 10 10 10 10 10 10 10 9 9 9 9 9 9 9 9 9 9 9 9 9 9 9 9 9 9 9
9 9 9 9 9 9 9 9 9 9 9 9 9 9 9 9 9 9 9 9 9 9 9 9 9 9 9 9 9 9 9 9 8 8 8 8 8 8 8 8 8 8 9 8
9 9 9 9 8 8 8 8 8 8 8 8 8 8 8 8 8 8 8 8 8 8 8 8 9 9 9 8 8 8 8 8 8 8 8 8 8 8 8 8 8 8 8 8
8 8 8 8 8 8 8 8 8 7 7 7 7 7 7 7 8 8 8 7 8 8 8 8 8 8 8 8 8 7 7 7 7 7 7 7 7 7 8 8 8 8 8 8
8 8 7 7 7 7 7 7 7 7 7 7 7 7 7 7 7 7 7 7 7 7 7 7 7 7 7 7 7 7 7 7 7 7 7 7 7 7 7 7 7 7 7 7
7 7 7 7 7 7 6 6 6 6 6 6 6 6 6 6 6 6 6 6 6 6 6 7 7 7 6 6 6 6 6 6 6 6 6 6 6 7 7 7 7 7 7 7
Wind_Speed
11 11 10 9 10 10 11 10 10 9 9 7 4 1 2 3 4 4 4 3 3 3 2 2 2 2 3 3 3 3 3 3 2 3 3 3 4 3 2 2 2 3 4 3
13 13 12 12 12 11 11 11 11 11 10 6 5 1 1 2 3 4 3 3 3 2 2 2 2 2 2 3 3 3 3 3 2 2 3 4 4 3 3 2 2 3 3 4
11 11 12 12 10 10 10 10 10 10 7 5 4 1 1 2 3 3 4 3 2 2 2 2 2 2 2 3 3 3 3 3 3 2 3 3 4 4 3 3 3 3 3 4
8 10 11 5 3 4 6 6 6 5 3 4 3 2 1 1 3 3 4 3 2 1 1 1 2 2 2 3 3 3 3 2 2 2 3 3 3 3 3 3 3 3 3 3
7 9 10 6 2 2 4 4 4 4 4 4 4 1 1 1 2 3 3 2 2 1 1 2 2 2 2 3 3 3 3 3 2 3 3 4 4 3 3 3 3 3 3 4
8 8 8 3 3 3 4 4 2 3 4 4 2 2 1 2 2 2 2 1 1 1 1 1 2 3 3 3 4 3 3 3 3 2 3 4 5 4 2 3 3 3 3 3
10 10 7 2 3 3 3 2 4 4 4 3 3 2 2 2 1 0 1 1 1 1 1 1 2 3 3 2 2 3 3 2 2 2 3 4 4 4 4 4 3 3 3 3
8 10 6 2 1 2 2 3 4 5 5 4 2 2 1 1 1 0 1 2 1 1 1 2 3 3 2 2 2 2 2 2 3 3 3 3 4 4 4 4 4 4 4 3
4 3 1 2 2 3 3 4 4 4 5 5 3 2 1 1 1 1 1 2 2 2 2 2 3 3 3 2 2 2 2 3 3 3 3 3 4 4 4 4 4 4 4 4
7 5 4 2 2 2 3 5 4 4 5 5 3 3 2 1 1 1 2 2 3 3 3 3 3 3 3 2 2 3 2 3 3 3 3 3 3 3 3 4 4 4 4 4
9 7 4 3 3 3 4 5 5 5 5 5 4 4 4 3 2 2 2 3 3 3 3 3 3 3 3 3 3 3 2 2 3 3 3 3 3 3 4 4 5 5 4 4
7 6 6 4 3 4 5 5 5 6 6 5 4 3 4 3 2 1 2 3 3 4 4 4 4 4 4 4 4 4 3 3 2 2 2 3 3 2 1 3 5 6 6 6
8 7 6 6 5 4 5 6 6 6 6 6 4 3 4 3 2 2 3 3 4 4 4 4 4 4 4 4 4 4 4 3 3 2 3 3 3 4 2 0 1 4 6 6
6 6 7 7 6 5 6 6 6 6 6 6 5 4 4 4 3 3 4 4 4 4 4 4 4 4 4 4 4 4 4 4 4 3 4 4 4 4 4 4 3 1 3 7
8 7 7 6 6 7 7 6 6 5 6 6 5 4 4 4 4 4 4 3 4 4 4 4 5 4 3 3 4 4 3 3 4 3 3 3 3 3 3 4 4 3 2 3
7 7 7 6 7 8 7 7 7 6 6 7 6 6 5 5 4 4 4 4 4 5 5 5 4 4 3 4 4 4 3 4 4 3 3 3 4 4 4 4 4 4 4 4
7 7 6 7 8 8 8 8 8 7 7 7 7 6 5 5 5 4 4 4 4 4 3 3 3 3 3 4 4 3 3 4 5 4 4 4 4 4 4 4 4 4 4 5
8 8 8 8 7 8 8 7 7 7 7 7 6 5 5 5 5 4 4 3 3 3 2 2 2 2 2 3 3 3 3 3 4 4 4 4 4 4 4 5 5 5 4 5
7 7 6 7 7 7 7 7 6 6 6 6 6 5 5 4 4 4 3 2 2 3 2 2 2 2 3 4 3 3 3 3 3 3 3 4 4 4 4 4 4 5 4 4
6 7 7 7 7 6 6 6 6 5 5 5 5 5 4 4 4 3 2 2 2 3 2 1 2 2 2 2 3 3 3 4 4 4 3 4 4 4 4 4 4 4 5 5
6 6 6 6 6 6 6 6 5 5 4 4 4 4 4 4 3 2 2 2 2 2 1 2 1 1 2 2 4 3 3 3 4 4 4 4 4 4 4 4 4 4 4 4
5 5 5 5 5 5 5 5 4 4 4 3 3 3 4 4 3 2 1 1 1 2 1 1 1 2 2 3 3 3 3 3 3 3 3 4 4 4 4 4 4 4 4 4
5 5 5 5 5 5 5 4 3 3 3 3 3 3 3 3 2 1 2 1 1 2 1 1 2 3 3 3 2 3 3 3 3 3 3 3 3 4 4 4 3 3 3 4
5 5 5 4 4 4 5 4 3 2 3 2 3 3 2 2 2 2 1 1 2 2 2 2 2 3 3 2 2 2 3 3 3 3 3 2 2 3 3 3 3 3 3 3
5 5 4 4 4 3 4 4 3 3 2 2 2 2 2 2 2 2 1 1 1 2 2 2 2 2 2 1 1 2 2 2 3 3 3 3 3 3 3 2 3 3 3 3
5 3 3 3 3 3 3 2 2 2 2 1 2 2 2 2 1 1 1 1 2 2 2 1 2 2 1 1 1 2 2 2 2 2 2 2 3 3 2 3 3 2 2 2
5 3 2 2 3 3 3 2 2 2 2 2 2 2 2 2 2 2 1 1 1 2 1 1 1 1 1 1 1 1 1 1 1 1 2 2 2 2 2 3 2 2 2 2
Wind_Direction
275 286 284 273 265 257 256 262 270 281 291 303 326 30 126 123 118 131 141 139 135 145 148 145 165 171 156 148 159 165 156 161 179 162 162 150 146 162 157 149 146 131 134 133
275 274 274 268 261 256 259 263 267 273 278 300 314 359 94 147 147 155 154 146 142 152 144 163 172 164 158 165 167 159 153 154 158 150 146 145 152 158 151 160 146 131 132 127
271 272 276 262 255 251 255 262 263 269 281 302 307 328 225 171 165 161 150 139 140 150 156 176 174 164 171 173 162 156 147 149 149 149 141 149 152 140 147 148 132 129 132 133
269 272 259 259 282 265 265 279 284 285 296 298 310 335 44 97 148 142 141 146 151 167 179 185 167 163 166 160 156 148 147 145 146 145 142 142 132 134 153 150 148 154 153 152
258 264 268 263 259 262 272 279 301 303 313 320 322 358 43 48 92 106 117 128 141 177 197 182 158 150 164 162 160 157 163 172 166 163 159 154 150 155 159 149 155 163 160 156
250 258 262 282 348 343 297 261 312 316 322 332 325 287 312 50 49 56 86 98 115 165 214 140 135 146 156 162 167 172 178 187 179 179 171 167 167 165 161 158 163 160 163 161
245 253 261 302 353 339 265 316 2 357 349 343 310 322 16 52 48 40 129 138 157 180 170 135 147 154 157 159 169 177 178 180 177 182 182 178 169 164 163 164 168 176 170 158
237 244 249 18 325 290 326 5 10 4 351 343 336 1 21 18 7 155 161 175 177 157 143 142 149 149 153 161 147 141 158 175 180 184 187 172 159 166 170 167 171 177 170 159
244 248 317 353 353 351 343 332 354 359 346 336 333 320 309 282 285 233 192 187 170 164 166 172 161 155 174 175 153 159 177 182 181 180 174 164 166 177 174 173 177 185 175 175
265 256 270 271 289 315 319 316 333 339 335 334 327 321 293 269 263 249 221 185 176 178 192 185 176 177 187 169 167 180 185 187 187 186 175 166 162 167 171 180 184 188 187 188
264 275 281 263 279 295 304 312 322 327 324 320 317 312 307 289 261 252 215 188 185 195 207 207 200 192 181 174 175 189 192 195 198 188 175 168 171 183 186 192 190 190 195 190
266 280 287 287 297 299 294 297 304 308 308 309 312 307 298 294 278 253 228 201 200 201 209 219 214 200 188 188 192 195 200 200 199 187 170 168 165 156 144 183 190 192 190 188
284 300 305 305 292 283 285 291 291 293 297 296 299 296 289 285 263 249 235 213 214 209 209 223 222 209 201 198 201 202 205 200 194 188 178 178 175 173 173 118 172 198 194 191
299 301 297 300 302 300 293 289 286 287 289 285 283 279 277 275 262 246 232 221 217 218 212 216 218 215 206 200 201 207 205 198 195 198 193 192 195 193 183 178 184 222 216 197
291 290 290 303 307 302 299 294 288 283 283 283 282 277 269 263 259 255 238 228 224 221 218 216 216 212 195 199 204 213 211 201 193 191 191 191 194 197 193 193 190 187 169 185
282 285 285 288 288 292 293 292 288 284 283 279 279 276 273 265 257 257 240 228 230 229 220 213 212 203 194 201 207 206 206 210 200 191 194 198 197 199 200 201 199 194 193 187
276 277 280 282 283 284 284 284 284 283 283 279 277 275 272 267 258 252 244 234 237 240 229 214 211 196 194 200 207 207 201 203 202 200 205 206 205 208 208 206 208 207 204 194
267 268 272 279 282 285 286 287 290 291 289 288 287 283 277 270 261 256 250 236 232 236 234 217 196 190 202 212 216 213 215 206 201 207 211 211 210 214 212 209 212 216 213 201
273 279 283 286 289 292 291 291 291 290 291 289 286 281 276 274 266 259 260 249 242 246 242 206 209 220 225 224 223 212 215 215 210 212 214 216 219 223 222 216 214 214 209 202
278 286 289 292 294 296 296 295 295 294 293 290 286 285 283 281 273 259 243 249 252 256 257 211 217 237 244 238 236 222 217 215 211 214 218 220 222 224 224 223 221 216 214 211
276 283 290 296 301 303 300 295 291 291 294 295 294 297 299 299 296 275 248 260 277 297 262 202 210 222 223 238 238 228 221 220 216 217 217 219 224 227 227 224 225 222 216 214
276 283 289 293 297 300 302 296 292 296 299 299 300 303 303 302 303 302 295 302 309 316 294 230 247 249 253 249 229 223 219 220 222 226 226 222 223 227 228 226 228 228 220 213
286 293 297 296 299 300 304 303 298 293 289 288 292 292 296 305 309 299 289 315 322 302 300 270 273 267 264 239 226 225 226 224 224 227 229 228 228 229 228 227 229 233 227 222
291 293 298 302 306 304 301 302 298 292 291 291 296 300 299 295 300 301 300 293 307 292 283 263 260 267 247 235 227 228 231 231 231 232 234 233 236 233 228 226 227 228 229 235
302 297 298 304 299 297 294 296 302 305 299 300 308 313 305 295 292 300 307 294 279 283 289 265 256 253 246 246 236 241 245 241 241 239 240 241 238 234 231 229 224 223 224 232
306 297 296 300 300 297 292 291 282 273 269 289 304 304 301 301 304 307 307 279 258 275 287 263 243 235 241 244 240 246 250 254 254 245 243 246 242 237 234 235 235 231 237 237
304 297 295 291 294 300 301 295 283 279 272 267 282 291 296 301 304 301 300 281 271 279 282 254 237 242 250 260 265 272 278 270 261 262 260 253 245 236 232 235 227 221 225 225
Height
1499 1496 1495 1497 1498 1497 1499 1499 1504 1501 1498 1493 1491 1492 1494 1496 1498 1500 1502 1504 1505 1506 1507 1508 1509 1510 1510 1512 1513 1514 1516 1517 1518 1520 1522 1523 1525 1527 1528 1530 1531 1532 1533 1534
1500 1495 1493 1494 1493 1493 1494 1494 1495 1495 1495 1491 1491 1491 1493 1494 1496 1498 1500 1502 1503 1505 1505 1506 1507 1508 1509 1510 1511 1513 1514 1515 1517 1518 1520 1521 1522 1524 1526 1528 1529 1530 1531 1532
1504 1496 1494 1496 1489 1489 1490 1489 1492 1495 1493 1490 1490 1490 1492 1493 1495 1496 1498 1500 1502 1503 1504 1505 1506 1506 1507 1508 1510 1511 1512 1514 1515 1516 1518 1519 1521 1522 1524 1526 1527 1528 1529 1531
1503 1502 1508 1491 1482 1483 1486 1487 1487 1488 1488 1489 1489 1490 1490 1492 1493 1495 1497 1499 1500 1501 1502 1503 1504 1505 1505 1507 1508 1509 1510 1512 1513 1515 1516 1517 1519 1520 1522 1523 1525 1526 1527 1529
1505 1506 1498 1487 1483 1484 1487 1489 1487 1487 1487 1488 1488 1489 1491 1491 1493 1494 1496 1497 1498 1499 1500 1501 1501 1502 1503 1504 1506 1507 1509 1510 1511 1513 1514 1515 1517 1518 1519 1521 1522 1524 1525 1526
1502 1507 1505 1492 1484 1483 1487 1491 1487 1487 1487 1488 1488 1491 1492 1491 1492 1493 1494 1495 1496 1497 1498 1499 1499 1500 1501 1503 1504 1505 1506 1508 1509 1510 1512 1513 1514 1516 1517 1519 1520 1522 1523 1524
1501 1503 1495 1488 1485 1485 1496 1495 1488 1488 1488 1489 1489 1491 1491 1491 1491 1492 1493 1493 1494 1495 1496 1496 1497 1498 1499 1501 1502 1503 1505 1506 1507 1508 1509 1510 1512 1513 1515 1516 1518 1519 1521 1522
1496 1501 1498 1487 1486 1490 1492 1489 1489 1489 1489 1489 1489 1489 1489 1489 1489 1490 1490 1491 1492 1493 1493 1494 1495 1496 1497 1499 1500 1501 1502 1503 1504 1505 1507 1508 1509 1511 1512 1514 1515 1517 1518 1520
1490 1493 1488 1487 1488 1489 1489 1489 1488 1488 1488 1488 1488 1487 1487 1488 1488 1488 1488 1489 1490 1491 1492 1493 1493 1494 1495 1497 1498 1499 1500 1501 1502 1503 1504 1505 1507 1508 1510 1511 1513 1514 1515 1516
1485 1484 1485 1486 1487 1488 1488 1488 1488 1488 1487 1487 1486 1486 1486 1485 1485 1486 1486 1486 1487 1488 1489 1490 1491 1492 1493 1494 1496 1497 1497 1498 1499 1500 1501 1503 1504 1505 1506 1508 1509 1510 1512 1513
1484 1483 1484 1484 1485 1486 1486 1486 1486 1486 1486 1486 1485 1484 1484 1483 1483 1483 1484 1484 1485 1486 1486 1488 1489 1489 1491 1492 1493 1494 1495 1496 1497 1498 1499 1500 1501 1502 1503 1504 1506 1507 1508 1509
1483 1482 1483 1483 1484 1484 1484 1484 1484 1484 1484 1483 1483 1482 1482 1481 1481 1481 1481 1482 1482 1483 1483 1485 1486 1486 1487 1489 1490 1491 1492 1493 1494 1495 1496 1497 1497 1499 1500 1502 1503 1504 1505 1506
1480 1481 1481 1481 1481 1482 1482 1482 1482 1482 1481 1481 1480 1480 1479 1479 1478 1478 1479 1479 1479 1480 1480 1481 1482 1483 1484 1485 1486 1487 1488 1489 1490 1491 1492 1493 1494 1495 1496 1497 1499 1500 1501 1502
1479 1480 1479 1479 1480 1479 1479 1479 1479 1479 1478 1478 1477 1477 1476 1476 1475 1475 1475 1476 1476 1477 1477 1478 1479 1479 1480 1481 1482 1483 1485 1486 1487 1487 1488 1489 1490 1491 1492 1493 1494 1495 1497 1498
1478 1478 1478 1478 1477 1477 1477 1476 1476 1475 1475 1474 1474 1473 1473 1472 1472 1472 1472 1472 1473 1474 1474 1474 1475 1476 1477 1478 1479 1480 1481 1482 1483 1484 1484 1485 1487 1488 1488 1489 1490 1491 1492 1493
1475 1475 1475 1475 1475 1474 1474 1474 1473 1472 1472 1471 1470 1469 1469 1468 1468 1468 1469 1469 1469 1470 1470 1471 1471 1472 1473 1474 1474 1476 1477 1478 1479 1479 1480 1481 1482 1484 1485 1485 1486 1487 1487 1488
1472 1472 1472 1472 1472 1471 1471 1470 1470 1468 1467 1467 1466 1465 1465 1465 1464 1465 1465 1465 1466 1466 1467 1467 1467 1468 1469 1470 1471 1472 1473 1474 1475 1476 1476 1477 1478 1479 1480 1481 1482 1482 1483 1484
1469 1470 1470 1469 1469 1468 1467 1466 1465 1464 1463 1462 1462 1461 1461 1460 1460 1460 1461 1462 1462 1463 1463 1464 1464 1464 1465 1466 1467 1468 1468 1469 1470 1471 1472 1473 1474 1475 1476 1476 1477 1478 1478 1479
1465 1466 1466 1465 1465 1464 1463 1462 1461 1460 1459 1458 1458 1457 1457 1457 1457 1457 1458 1458 1458 1458 1459 1460 1460 1461 1461 1462 1463 1463 1464 1465 1465 1466 1467 1468 1469 1470 1471 1472 1472 1473 1474 1474
1461 1462 1462 1461 1461 1460 1459 1458 1457 1456 1455 1455 1454 1454 1454 1454 1454 1454 1454 1454 1454 1454 1455 1455 1456 1456 1457 1457 1458 1459 1460 1460 1461 1462 1463 1464 1465 1466 1466 1467 1468 1468 1469 1469
1458 1458 1457 1457 1456 1456 1455 1455 1454 1453 1452 1452 1451 1451 1451 1451 1451 1451 1450 1450 1451 1451 1451 1451 1452 1452 1453 1454 1454 1455 1456 1456 1457 1458 1459 1459 1460 1461 1462 1462 1463 1463 1463 1464
1454 1454 1454 1453 1453 1452 1452 1451 1450 1449 1449 1449 1448 1448 1448 1448 1448 1448 1447 1448 1448 1448 1448 1448 1448 1448 1449 1450 1450 1451 1451 1452 1453 1453 1454 1455 1455 1456 1457 1457 1458 1458 1458 1458
1451 1451 1451 1450 1450 1449 1448 1447 1446 1446 1446 1445 1445 1445 1445 1445 1445 1445 1444 1444 1444 1444 1444 1444 1444 1445 1445 1446 1446 1447 1447 1448 1448 1449 1449 1450 1450 1451 1452 1452 1452 1453 1453 1453
1448 1448 1447 1447 1446 1445 1444 1444 1444 1443 1443 1443 1443 1443 1443 1442 1442 1442 1442 1441 1441 1441 1441 1441 1441 1441 1441 1442 1442 1443 1443 1444 1444 1444 1445 1445 1446 1446 1446 1447 1447 1447 1447 1447
1445 1444 1444 1443 1443 1442 1442 1441 1441 1440 1441 1440 1440 1440 1440 1439 1439 1438 1438 1438 1438 1437 1437 1437 1437 1437 1437 1437 1438 1439 1439 1439 1440 1440 1440 1441 1441 1441 1441 1441 1441 1441 1442 1442
1441 1441 1440 1440 1440 1439 1439 1438 1438 1437 1437 1437 1437 1437 1436 1436 1436 1435 1435 1435 1434 1434 1434 1433 1433 1434 1433 1434 1434 1434 1435 1435 1435 1435 1436 1436 1436 1436 1436 1436 1436 1436 1437 1437
1438 1437 1437 1437 1437 1436 1436 1436 1435 1435 1435 1434 1434 1434 1434 1433 1433 1432 1432 1431 1431 1431 1430 1430 1430 1430 1430 1430 1431 1431 1431 1431 1431 1431 1431 1431 1431 1431 1431 1431 1431 1431 1431 1432